sat.trackr.live / text

‹ back to catalog

STARLINK-34493

NORAD 64472 · 2025-133A

PAYLOAD ACTIVE UNKNOWN

§ Identity

Operator
Country
US
Launch date
2025-06-23
Launch site
AFETR
Launch vehicle
Mass (kg)
RCS (m²)

Purposes: comms

External: N2YO · Heavens-Above · Gunter

§ Orbital elements

Epoch: 2026-09-20T14:09:49.768704Z

Period
93.85 min
Inclination
53.1595°
Eccentricity
0.0001166
Mean motion
15.34402581 rev/d
Perigee alt
461.9 km
Apogee alt
463.5 km
Semi-major
6,840.8 km
B*
2.7478e-4
RAAN
289.0212°
Arg perigee
87.0805°
Mean anomaly
273.0331°
Rev number
7,106

§ Raw data

STARLINK-344931 64472U 25133A   26263.59015936  .00008920  00000+0  27478-3 0  99932 64472  53.1595 289.0212 0001166  87.0805 273.0331 15.34402581 71065

JSON: /api/v1/satellites/64472 · /tle

For live sub-satellite position, see the globe view (requires WebGL).

§ Visibility from observer

Set your observer location to see the next 7 days of passes ≥ 10°. The values pass through the URL so the page stays shareable.

No JS? Fill the form by hand. The geolocation button needs JavaScript.